Location: Cheyres
(46.8153°N, 6.7877°E)
Time: 04:21:16
(UTC+00:00)

Cosmos 2218 Rocket - Pass Details

Date: 11 May 2021
Orbit: 957 x 1005 km, 82.9° (Epoch: 18 June)

Event Time Altitude Azimuth Distance (km) Brightness Sun altitude
Rises 22:07:36 0° 353° (N) 3,687 8.4 -22.5°
Reaches altitude 10° 22:10:09 10° 356° (N) 2,742 7.4 -22.7°
Maximum altitude 22:16:24 66° 79° (ENE) 1,078 4.1 -23.0°
Enters shadow 22:18:17 45° 141° (SE) 1,320 4.2 -23.1°
